DECAYED

NOAA 16 DEB, 41225 (Decayed)

Orbit data source: Space-Track

NOAA 16 DEB, 41225 was space debris in SSO originally from a launch on Thu, 21 Sep 2000 UTC launched from the Air Force Western Test Range (AFWTR). Debris objects in space refer to the collection of defunct objects orbiting the Earth. Examples of debris include non-operational satellites, rocket bodies, and fragments generated from explosions, collisions, or faulty payload assembly.

Loading next visibility...
Identifier
41225, 2000-055EE
Orbit
Decayed
Country
Flag of USUS
Related business
Manufacturer
Unknown
Mission
Decayed spacecraft
Bus & Motor
Unknown
Mass
Unknown
Launch date (UTC)
2000-09-21 (26 years ago)
Launch vehicle
Unknown
Launch site
Air Force Western Test Range (AFWTR)
Object type
Payload
Rocket body
Debris
Shape & HBR
Unknown shape, 0.1 m
Radar Cross Section
Medium (>0.1 m² and <1 m²)

Expand to show TLE details & history
Last TLE update: 10 months ago

TLE from 10 months ago
0 NOAA 16 DEB
1 41225U 00055EE  25241.82348715  .01608071  00000-0  20928-1 0  9991
2 41225  98.8641  88.1422 0010194 257.1952 102.8159 15.55855183507254
Epoch: 2025-08-29T19:45Z
TLE epoch observation values (Epoch: 2025-08-29T19:45:49.289Z)
Latitude
-0.00005°
Longitude
173.42023°
Altitude
404.3 km
Speed
7.667 km/s
True Right ascension
05h 52m 34s
True Declination
0° 00' 00"
Sunlit
Object was in daylight at epoch
Visualization orbit readout
Latitude
Unknown
Longitude
Unknown
Altitude
Unknown
Speed
Unknown
Apparent Right ascension
Unknown
Apparent Declination
Unknown
Sunlit
N/A
Visualization observer readout
Local Sidereal Time
03:35:02
Azimuth
Unknown
Elevation
Unknown
Doppler factor
Unknown
Orbital elements
Apogee altitude
403.562 km
Perigee altitude
389.749 km
Semi-major axis
6,774.792 km
Eccentricity
0.00102
Inclination
98.8641°
RAAN
88.1422°
Arg. of periapsis
257.1952°
True anomaly
102.92977°
Mean anomaly
102.8159°
Eccentric anomaly
102.87284°
Mean motion
3.89224 °/min
Orbital period
92.49 mins
BSTAR
0.020928
Loading maneuver chart data...
Computing Atmospheric mass density...
Loading historical data...
Loading historical data...
Loading historical data...
Loading historical data...
Loading historical data...
Loading historical data...
Loading historical data...

Documentation

Showing up to 5 results
|